Rechercher aéroport 
image banner adimage banner adimage banner ad
image banner ad

CA72 - Community Memorial Hospital

Situé à Ventura, United States

ICAO - CA72, IATA -

Données fournies par Airmate  

Information générale

Coordonnées: N34°16'29" W119°15'33"
Élévation : 175 feet MSL.
Variation magnétique : 14° East
Voir autres Aéroports à California

Données opérationnelles

Special qualification required
Heure actuelle UTC:
Heure actuelle locale:
Météo à : KOXR - Oxnard ( 9 km )
METAR: KOXR 212251Z 29010KT 6SM HZ FEW004 21/17 A3004 RMK AO2 SLP172 T02060167
TAF: KOXR 211731Z 2118/2218 00000KT 6SM HZ SKC FM212000 27010KT P6SM SKC FM220400 VRB03KT P6SM SKC FM220900 VRB03KT 6SM BR OVC007 FM221200 VRB03KT 2SM BR OVC004 FM221600 VRB03KT 4SM BR BKN006
Voir NOTAMs / SUP AIP / TFR affectant cet aéroport [VIEW]
Fréquences de communication: [VIEW]

Pistes:

Coordonnées de l'aéroport

Adresse: Ventura United States

Vue satellite de CA72